VTK519 UNOO-UNNT

Flight info

Callsign VTK519
Flight time 0h 57m
Altitude 35000
Route K0830F350 RUMOD A844 BIKMI R234 ABESA B944 GOLIM
Aircraft B737/M-SDE2E3FGHIRWXY/LB1

Departure

Time 2026-04-27 10:35
Airport Omsk Central Airport (UNOO)

Arrival

Time 2026-04-27 11:32
Airport Novosibirsk Tolmachevo Airport (UNNT)
Time Latitude Longitude Altitude Speed Heading
2026-04-27 10:13 54.95994 73.31508 310 ft 0 kts 167°
2026-04-27 10:29 54.95992 73.31509 310 ft 1 kts 167°
2026-04-27 10:30 54.95981 73.31524 308 ft 3 kts 123°
2026-04-27 10:30 54.95984 73.31571 309 ft 5 kts 64°
2026-04-27 10:30 54.96012 73.31629 309 ft 8 kts 46°
2026-04-27 10:30 54.96054 73.31705 309 ft 10 kts 46°
2026-04-27 10:31 54.96105 73.31797 308 ft 11 kts 46°
2026-04-27 10:31 54.96157 73.31891 307 ft 11 kts 46°
2026-04-27 10:31 54.96209 73.31983 308 ft 10 kts 46°
2026-04-27 10:31 54.96258 73.32071 306 ft 10 kts 44°
2026-04-27 10:32 54.96313 73.32144 307 ft 10 kts 36°
2026-04-27 10:32 54.96367 73.32213 307 ft 10 kts 34°
2026-04-27 10:32 54.96429 73.32234 307 ft 9 kts 349°
2026-04-27 10:32 54.96490 73.32208 307 ft 9 kts 346°
2026-04-27 10:33 54.96551 73.32183 305 ft 9 kts 347°
2026-04-27 10:33 54.96609 73.32160 305 ft 9 kts 347°
2026-04-27 10:33 54.96666 73.32136 305 ft 8 kts 347°
2026-04-27 10:33 54.96721 73.32114 305 ft 8 kts 347°
2026-04-27 10:34 54.96774 73.32092 306 ft 8 kts 347°
2026-04-27 10:34 54.96825 73.32072 308 ft 7 kts 347°
2026-04-27 10:34 54.96847 73.32029 308 ft 5 kts 269°
2026-04-27 10:34 54.96839 73.31967 307 ft 8 kts 257°
2026-04-27 10:35 54.96787 73.31575 306 ft 72 kts 257°
2026-04-27 10:35 54.96618 73.30297 317 ft 141 kts 257°
2026-04-27 10:35 54.96384 73.28590 1047 ft 143 kts 257°
2026-04-27 10:35 54.96162 73.26928 1969 ft 140 kts 258°
2026-04-27 10:36 54.95941 73.25274 2794 ft 140 kts 258°
2026-04-27 10:36 54.95714 73.23584 3533 ft 145 kts 257°
2026-04-27 10:36 54.95469 73.21736 3994 ft 173 kts 258°
2026-04-27 10:36 54.95171 73.19518 4318 ft 202 kts 258°
2026-04-27 10:37 54.94824 73.16963 4662 ft 231 kts 257°
2026-04-27 10:37 54.94443 73.14186 5499 ft 239 kts 257°
2026-04-27 10:37 54.94059 73.11356 6429 ft 243 kts 257°
2026-04-27 10:37 54.93670 73.08476 7325 ft 245 kts 258°
2026-04-27 10:38 54.93278 73.05571 8214 ft 249 kts 259°
2026-04-27 10:38 54.93256 73.02588 8932 ft 257 kts 284°
2026-04-27 10:38 54.94081 72.99783 9822 ft 262 kts 309°
2026-04-27 10:38 54.95506 72.97838 10720 ft 269 kts 332°
2026-04-27 10:39 54.97384 72.97128 11612 ft 282 kts 358°
2026-04-27 10:39 54.99306 72.97929 12424 ft 297 kts 21°
2026-04-27 10:39 55.01026 73.00016 13329 ft 309 kts 42°
2026-04-27 10:39 55.02345 73.03057 14177 ft 319 kts 52°
2026-04-27 10:40 55.03553 73.06332 14991 ft 323 kts 53°
2026-04-27 10:40 55.04755 73.09691 15788 ft 330 kts 53°
2026-04-27 10:40 55.05980 73.13124 16600 ft 336 kts 53°
2026-04-27 10:40 55.07227 73.16598 17427 ft 341 kts 52°
2026-04-27 10:41 55.08500 73.20120 18260 ft 346 kts 52°
2026-04-27 10:41 55.09795 73.23687 19005 ft 351 kts 51°
2026-04-27 10:41 55.11108 73.27294 19770 ft 353 kts 51°
2026-04-27 10:41 55.12434 73.30936 20569 ft 356 kts 51°
2026-04-27 10:42 55.13770 73.34603 21301 ft 361 kts 51°
2026-04-27 10:42 55.15131 73.38340 22011 ft 366 kts 51°
2026-04-27 10:42 55.16503 73.42115 22771 ft 370 kts 51°
2026-04-27 10:42 55.17888 73.45934 23547 ft 373 kts 51°
2026-04-27 10:43 55.19285 73.49791 24230 ft 377 kts 51°
2026-04-27 10:43 55.20696 73.53691 24853 ft 381 kts 50°
2026-04-27 10:43 55.22122 73.57637 25455 ft 386 kts 50°
2026-04-27 10:43 55.23561 73.61628 26051 ft 390 kts 50°
2026-04-27 10:44 55.25015 73.65668 26656 ft 394 kts 50°
2026-04-27 10:44 55.26485 73.69754 27230 ft 398 kts 49°
2026-04-27 10:44 55.27969 73.73890 27809 ft 403 kts 49°
2026-04-27 10:44 55.29258 73.78340 28346 ft 420 kts 64°
2026-04-27 10:45 55.29882 73.83431 28909 ft 436 kts 82°
2026-04-27 10:45 55.29748 73.88811 29457 ft 445 kts 94°
2026-04-27 10:45 55.29316 73.94223 29979 ft 451 kts 96°
2026-04-27 10:45 55.28814 73.99681 30405 ft 456 kts 97°
2026-04-27 10:46 55.28290 74.05199 30822 ft 460 kts 97°
2026-04-27 10:46 55.27773 74.10736 31289 ft 461 kts 97°
2026-04-27 10:46 55.27269 74.16279 31758 ft 461 kts 97°
2026-04-27 10:46 55.26777 74.21844 32215 ft 462 kts 97°
2026-04-27 10:47 55.26290 74.27437 32623 ft 465 kts 98°
2026-04-27 10:47 55.25806 74.33053 33012 ft 467 kts 98°
2026-04-27 10:47 55.25320 74.38691 33398 ft 469 kts 98°
2026-04-27 10:47 55.24830 74.44353 33797 ft 471 kts 99°
2026-04-27 10:48 55.24334 74.50050 34165 ft 473 kts 99°
2026-04-27 10:48 55.23834 74.55755 34446 ft 475 kts 99°
2026-04-27 10:48 55.23327 74.61502 34720 ft 478 kts 99°
2026-04-27 10:48 55.22823 74.67180 34982 ft 479 kts 99°
2026-04-27 10:49 55.22307 74.72958 35220 ft 482 kts 100°
2026-04-27 10:49 55.21782 74.78805 35201 ft 490 kts 100°
2026-04-27 10:49 55.20698 74.90760 35222 ft 503 kts 100°
2026-04-27 10:50 55.19584 75.02934 35212 ft 507 kts 100°
2026-04-27 10:50 55.18456 75.15119 35207 ft 507 kts 100°
2026-04-27 10:51 55.17317 75.27275 35207 ft 506 kts 100°
2026-04-27 10:51 55.16166 75.39426 35170 ft 505 kts 101°
2026-04-27 10:52 55.15008 75.51517 35199 ft 504 kts 101°
2026-04-27 10:52 55.13838 75.63594 35213 ft 504 kts 101°
2026-04-27 10:53 55.12062 75.81694 35202 ft 504 kts 101°
2026-04-27 10:54 55.10863 75.93747 35201 ft 503 kts 101°
2026-04-27 10:54 55.09654 76.05782 35202 ft 503 kts 101°
2026-04-27 10:55 55.08431 76.17822 35197 ft 504 kts 101°
2026-04-27 10:55 55.07189 76.29927 35198 ft 504 kts 102°
2026-04-27 10:56 55.05943 76.41955 35198 ft 504 kts 102°
2026-04-27 10:56 55.04691 76.53910 35199 ft 504 kts 102°
2026-04-27 10:57 55.03421 76.65923 35188 ft 503 kts 102°
2026-04-27 10:57 55.02139 76.77923 35191 ft 503 kts 102°
2026-04-27 10:58 55.00841 76.89964 35195 ft 503 kts 102°
2026-04-27 10:58 54.99537 77.01940 35193 ft 503 kts 103°
2026-04-27 10:59 54.98223 77.13890 35196 ft 502 kts 103°
2026-04-27 10:59 54.96900 77.25811 35193 ft 502 kts 103°
2026-04-27 11:00 54.94893 77.43684 35199 ft 501 kts 103°
2026-04-27 11:00 54.93544 77.55581 35198 ft 501 kts 103°
2026-04-27 11:01 54.92945 77.67640 35189 ft 504 kts 86°
2026-04-27 11:01 54.93771 77.79729 35193 ft 504 kts 83°
2026-04-27 11:02 54.94695 77.91807 35191 ft 503 kts 83°
2026-04-27 11:02 54.95559 78.03882 35191 ft 503 kts 84°
2026-04-27 11:03 54.96373 78.15997 35197 ft 504 kts 84°
2026-04-27 11:03 54.97171 78.28200 35193 ft 504 kts 84°
2026-04-27 11:04 54.97953 78.40319 35190 ft 504 kts 84°
2026-04-27 11:04 54.98726 78.52450 35190 ft 504 kts 84°
2026-04-27 11:05 54.99360 78.62539 35189 ft 505 kts 84°
2026-04-27 11:05 55.00112 78.74692 35180 ft 504 kts 85°
2026-04-27 11:06 55.00851 78.86832 35187 ft 504 kts 85°
2026-04-27 11:06 55.01578 78.98978 35192 ft 504 kts 85°
2026-04-27 11:07 55.02297 79.11206 35191 ft 504 kts 84°
2026-04-27 11:07 55.02995 79.23278 35186 ft 503 kts 85°
2026-04-27 11:08 55.03685 79.35417 35189 ft 503 kts 85°
2026-04-27 11:08 55.04368 79.47642 35185 ft 503 kts 85°
2026-04-27 11:09 55.05032 79.59766 35186 ft 502 kts 85°
2026-04-27 11:09 55.05685 79.71908 35186 ft 502 kts 85°
2026-04-27 11:10 55.06327 79.84042 34979 ft 505 kts 85°
2026-04-27 11:10 55.06646 79.90170 34283 ft 509 kts 85°
2026-04-27 11:10 55.06965 79.96336 33475 ft 509 kts 86°
2026-04-27 11:11 55.07279 80.02490 32643 ft 509 kts 86°
2026-04-27 11:11 55.07592 80.08660 31890 ft 508 kts 86°
2026-04-27 11:11 55.07900 80.14755 31349 ft 502 kts 87°
2026-04-27 11:11 55.08203 80.20791 30787 ft 497 kts 87°
2026-04-27 11:12 55.08499 80.26769 30235 ft 493 kts 88°
2026-04-27 11:12 55.08790 80.32707 29578 ft 488 kts 88°
2026-04-27 11:12 55.09073 80.38566 28999 ft 481 kts 88°
2026-04-27 11:12 55.09350 80.44344 28432 ft 475 kts 87°
2026-04-27 11:13 55.09621 80.50074 27874 ft 469 kts 87°
2026-04-27 11:13 55.09885 80.55713 27314 ft 464 kts 87°
2026-04-27 11:13 55.10145 80.61309 26761 ft 460 kts 87°
2026-04-27 11:13 55.10399 80.66855 26205 ft 456 kts 88°
2026-04-27 11:14 55.10648 80.72333 25667 ft 452 kts 88°
2026-04-27 11:14 55.10894 80.77787 25142 ft 448 kts 88°
2026-04-27 11:14 55.11135 80.83189 24610 ft 445 kts 87°
2026-04-27 11:14 55.11373 80.88551 24083 ft 442 kts 87°
2026-04-27 11:15 55.11606 80.93881 23514 ft 439 kts 87°
2026-04-27 11:15 55.11801 80.99174 22903 ft 435 kts 89°
2026-04-27 11:15 55.11864 81.04429 22369 ft 430 kts 91°
2026-04-27 11:15 55.11864 81.09631 21828 ft 426 kts 92°
2026-04-27 11:16 55.11847 81.14767 21310 ft 421 kts 92°
2026-04-27 11:16 55.11834 81.19876 20774 ft 418 kts 91°
2026-04-27 11:16 55.11829 81.24928 20247 ft 414 kts 91°
2026-04-27 11:16 55.11830 81.29946 19734 ft 411 kts 91°
2026-04-27 11:17 55.11835 81.34920 19229 ft 408 kts 91°
2026-04-27 11:17 55.11840 81.39867 18723 ft 406 kts 91°
2026-04-27 11:17 55.11844 81.44775 18173 ft 403 kts 91°
2026-04-27 11:17 55.11847 81.49648 17606 ft 400 kts 91°
2026-04-27 11:18 55.11848 81.54490 17096 ft 395 kts 91°
2026-04-27 11:18 55.11847 81.59269 16585 ft 392 kts 91°
2026-04-27 11:18 55.11844 81.64019 16077 ft 388 kts 91°
2026-04-27 11:18 55.11838 81.68708 15567 ft 384 kts 91°
2026-04-27 11:19 55.11832 81.73347 15069 ft 380 kts 91°
2026-04-27 11:19 55.11824 81.77947 14571 ft 377 kts 91°
2026-04-27 11:19 55.11814 81.82511 14079 ft 374 kts 91°
2026-04-27 11:19 55.11802 81.87022 13682 ft 368 kts 91°
2026-04-27 11:20 55.11793 81.91468 13296 ft 364 kts 91°
2026-04-27 11:20 55.11785 81.95869 12814 ft 360 kts 91°
2026-04-27 11:20 55.11771 82.00226 12336 ft 356 kts 91°
2026-04-27 11:20 55.11753 82.04528 11851 ft 352 kts 91°
2026-04-27 11:21 55.11728 82.08796 11311 ft 351 kts 91°
2026-04-27 11:21 55.11703 82.13045 10798 ft 349 kts 90°
2026-04-27 11:21 55.11684 82.17240 10528 ft 339 kts 90°
2026-04-27 11:21 55.11662 82.21268 10376 ft 326 kts 90°
2026-04-27 11:22 55.11641 82.25148 10237 ft 313 kts 90°
2026-04-27 11:22 55.11616 82.28878 10107 ft 301 kts 90°
2026-04-27 11:22 55.11582 82.32511 9771 ft 298 kts 90°
2026-04-27 11:22 55.11556 82.36117 9346 ft 297 kts 90°
2026-04-27 11:23 55.11536 82.39791 8892 ft 298 kts 90°
2026-04-27 11:23 55.11532 82.43399 8529 ft 295 kts 88°
2026-04-27 11:23 55.11738 82.46931 8164 ft 292 kts 77°
2026-04-27 11:23 55.12159 82.50381 7843 ft 288 kts 76°
2026-04-27 11:24 55.12621 82.53714 7522 ft 285 kts 75°
2026-04-27 11:24 55.13103 82.57119 7164 ft 283 kts 73°
2026-04-27 11:24 55.13667 82.60400 6824 ft 281 kts 71°
2026-04-27 11:24 55.14253 82.63665 6395 ft 283 kts 71°
2026-04-27 11:25 55.14819 82.66954 6014 ft 282 kts 72°
2026-04-27 11:25 55.15352 82.70182 5708 ft 271 kts 72°
2026-04-27 11:25 55.15840 82.73289 5456 ft 257 kts 77°
2026-04-27 11:25 55.15976 82.76305 5220 ft 242 kts 90°
2026-04-27 11:26 55.15950 82.79185 4917 ft 231 kts 89°
2026-04-27 11:26 55.15952 82.81982 4654 ft 230 kts 89°
2026-04-27 11:26 55.15849 82.84740 4420 ft 224 kts 104°
2026-04-27 11:26 55.15082 82.87029 4205 ft 219 kts 145°
2026-04-27 11:27 55.13709 82.88087 3930 ft 218 kts 169°
2026-04-27 11:27 55.12255 82.88749 3721 ft 215 kts 169°
2026-04-27 11:27 55.10799 82.89167 3485 ft 208 kts 187°
2026-04-27 11:27 55.09376 82.88918 3266 ft 205 kts 191°
2026-04-27 11:28 55.07967 82.88637 3057 ft 201 kts 191°
2026-04-27 11:28 55.06592 82.88375 2845 ft 197 kts 190°
2026-04-27 11:28 55.05229 82.88113 2607 ft 195 kts 191°
2026-04-27 11:28 55.03949 82.87682 2520 ft 177 kts 211°
2026-04-27 11:29 55.03172 82.86296 2429 ft 152 kts 256°
2026-04-27 11:29 55.03037 82.84548 2335 ft 144 kts 264°
2026-04-27 11:29 55.02873 82.82824 2106 ft 144 kts 262°
2026-04-27 11:29 55.02714 82.81137 1907 ft 140 kts 264°
2026-04-27 11:30 55.02561 82.79477 1745 ft 139 kts 264°
2026-04-27 11:30 55.02410 82.77817 1538 ft 139 kts 263°
2026-04-27 11:30 55.02258 82.76196 1405 ft 128 kts 263°
2026-04-27 11:30 55.02123 82.74749 1186 ft 118 kts 265°
2026-04-27 11:31 55.01996 82.73329 1052 ft 117 kts 265°
2026-04-27 11:31 55.01866 82.71906 882 ft 123 kts 264°
2026-04-27 11:31 55.01731 82.70426 697 ft 125 kts 265°
2026-04-27 11:31 55.01591 82.68902 535 ft 128 kts 263°
2026-04-27 11:32 55.01452 82.67379 372 ft 122 kts 263°
2026-04-27 11:32 55.01350 82.66226 371 ft 65 kts 261°
2026-04-27 11:32 55.01302 82.65700 371 ft 37 kts 261°
2026-04-27 11:32 55.01265 82.65291 372 ft 32 kts 261°
2026-04-27 11:33 55.01232 82.64933 371 ft 29 kts 261°
2026-04-27 11:33 55.01200 82.64581 372 ft 31 kts 261°
2026-04-27 11:33 55.01169 82.64237 374 ft 21 kts 261°
2026-04-27 11:33 55.01154 82.64078 374 ft 10 kts 261°
2026-04-27 11:34 55.01119 82.63988 374 ft 10 kts 197°
2026-04-27 11:34 55.01054 82.63999 373 ft 9 kts 171°
2026-04-27 11:34 55.00998 82.64041 372 ft 9 kts 120°
2026-04-27 11:34 55.00983 82.64146 372 ft 9 kts 103°
2026-04-27 11:35 55.00967 82.64268 372 ft 12 kts 102°
2026-04-27 11:35 55.00948 82.64414 372 ft 12 kts 103°
2026-04-27 11:35 55.00930 82.64559 372 ft 12 kts 102°
2026-04-27 11:35 55.00911 82.64698 372 ft 12 kts 103°
2026-04-27 11:36 55.00893 82.64833 372 ft 11 kts 102°
2026-04-27 11:36 55.00876 82.64966 372 ft 11 kts 102°
2026-04-27 11:36 55.00875 82.65096 372 ft 11 kts 81°
2026-04-27 11:36 55.00884 82.65223 372 ft 10 kts 86°
2026-04-27 11:37 55.00889 82.65346 372 ft 10 kts 82°
2026-04-27 11:37 55.00900 82.65465 372 ft 10 kts 81°
2026-04-27 11:37 55.00911 82.65580 372 ft 10 kts 82°
2026-04-27 11:37 55.00921 82.65693 372 ft 9 kts 80°
2026-04-27 11:38 55.00931 82.65803 372 ft 9 kts 81°
2026-04-27 11:38 55.00940 82.65910 372 ft 9 kts 82°
2026-04-27 11:38 55.00946 82.65981 372 ft 9 kts 81°
2026-04-27 11:38 55.00962 82.66113 372 ft 8 kts 65°
2026-04-27 11:39 55.00979 82.66174 372 ft 8 kts 66°
2026-04-27 11:39 55.00998 82.66265 372 ft 8 kts 71°
2026-04-27 11:39 55.01015 82.66350 372 ft 6 kts 70°
2026-04-27 11:39 55.01030 82.66420 372 ft 5 kts 70°
2026-04-27 11:40 55.01041 82.66473 372 ft 4 kts 69°
2026-04-27 11:40 55.01038 82.66518 372 ft 4 kts 138°
2026-04-27 11:40 55.01011 82.66530 372 ft 4 kts 170°
2026-04-27 11:40 55.00984 82.66538 372 ft 4 kts 170°
2026-04-27 11:41 55.00965 82.66543 372 ft 0 kts 171°